Total_Precipitation_Accumulation
2.09 2.22 2.39 1.77 1.44 1.29 1.24 1.27 1.23 1.10 1.07 1.13 1.16 1.17 1.18 1.25 1.31 1.42 1.49 1.53 1.68 1.85 1.99 2.22 2.41 2.50 2.48 2.30 2.13 1.96 1.78 1.73 1.75 1.78 1.80 1.79 1.78 2.01 2.29 2.40 2.24 1.57 1.67
1.68 1.88 2.02 1.62 1.32 1.15 1.14 1.27 1.19 1.06 1.00 1.04 1.03 1.04 1.11 1.22 1.26 1.33 1.40 1.57 1.75 1.86 1.97 2.13 2.23 2.25 2.09 1.83 1.67 1.58 1.55 1.65 1.80 1.94 1.86 1.73 1.85 1.99 2.24 2.27 2.21 1.55 1.62
1.16 1.42 1.41 1.40 1.22 1.09 1.07 1.13 1.08 1.00 0.94 1.00 1.06 1.12 1.20 1.29 1.27 1.25 1.37 1.56 1.71 1.79 1.87 1.97 2.00 1.93 1.74 1.50 1.39 1.33 1.47 1.70 1.90 2.17 2.24 1.54 1.42 1.92 2.23 2.16 1.80 1.45 1.48
0.85 1.02 1.02 1.10 1.05 0.90 0.78 0.85 0.96 0.91 0.93 1.02 1.14 1.26 1.38 1.53 1.53 1.52 1.55 1.60 1.73 1.76 1.74 1.79 1.76 1.62 1.48 1.33 1.22 1.27 1.40 1.66 1.92 2.38 2.22 1.43 1.10 1.59 1.98 1.75 1.55 1.46 1.43
0.74 0.82 0.94 0.86 0.78 0.76 0.71 0.72 0.85 0.95 0.99 1.00 1.11 1.25 1.43 1.70 1.75 1.79 1.82 1.86 1.86 1.74 1.63 1.60 1.55 1.39 1.25 1.15 1.13 1.21 1.33 1.62 1.96 2.04 1.68 1.52 1.45 1.56 1.62 1.56 1.55 1.53 1.48
0.63 0.67 0.69 0.77 0.73 0.71 0.73 0.73 0.78 0.89 0.98 1.03 1.11 1.27 1.45 1.73 1.91 2.00 1.93 1.92 1.84 1.63 1.51 1.43 1.37 1.20 1.08 1.03 1.12 1.18 1.32 1.71 1.70 1.24 1.23 1.25 1.32 1.58 1.55 1.71 1.74 1.67 1.60
0.56 0.63 0.66 0.71 0.72 0.71 0.69 0.76 0.82 0.83 0.97 1.02 1.03 1.17 1.37 1.59 1.89 1.95 1.85 1.76 1.60 1.49 1.43 1.37 1.29 1.13 1.09 1.07 1.16 1.16 1.35 1.64 1.31 0.94 1.18 1.38 1.25 1.32 1.51 1.77 1.90 1.82 1.60
0.64 0.55 0.65 0.74 0.74 0.68 0.64 0.72 0.77 0.82 0.91 1.01 1.02 1.09 1.26 1.46 1.65 1.68 1.59 1.48 1.37 1.39 1.38 1.34 1.27 1.17 1.07 1.09 1.13 1.16 1.35 1.33 1.01 0.92 1.00 1.08 1.04 1.16 1.42 1.63 1.76 1.79 1.59
0.86 0.72 0.69 0.65 0.61 0.62 0.67 0.69 0.76 0.88 1.03 1.10 1.10 1.17 1.36 1.43 1.47 1.39 1.39 1.35 1.32 1.33 1.36 1.27 1.15 1.04 0.96 1.01 1.05 1.13 1.30 1.36 1.13 1.12 0.89 0.91 1.12 1.29 1.49 1.64 1.64 1.58 1.51
1.15 0.98 0.83 0.77 0.76 0.66 0.65 0.76 0.83 0.95 1.13 1.23 1.25 1.35 1.53 1.53 1.45 1.43 1.36 1.34 1.36 1.42 1.41 1.29 1.08 0.94 0.89 0.97 1.00 1.09 1.26 1.10 0.96 0.97 0.93 0.88 1.20 1.41 1.56 1.61 1.60 1.49 1.47
1.59 1.25 1.06 0.93 0.95 0.91 0.79 0.81 0.98 1.08 1.22 1.31 1.50 1.65 1.83 1.81 1.60 1.68 1.55 1.63 1.60 1.62 1.59 1.48 1.28 1.14 1.04 1.02 1.21 1.41 1.19 1.01 1.15 1.20 1.11 1.10 1.27 1.49 1.68 1.70 1.70 1.65 1.60
1.78 1.37 1.24 1.06 0.95 0.95 1.05 1.32 1.43 1.25 1.43 1.70 1.96 2.10 2.33 2.23 2.10 1.75 1.91 2.07 2.17 2.31 2.22 2.05 1.93 1.58 1.29 1.19 1.73 1.99 1.24 1.09 1.18 1.33 1.27 1.28 1.50 1.76 1.92 1.84 1.74 1.70 1.62
1.67 1.44 1.36 1.34 1.33 1.20 1.33 1.53 1.66 1.66 1.86 2.02 2.10 2.22 2.38 2.07 1.98 2.00 2.17 2.40 2.52 2.58 2.42 2.46 2.43 2.09 1.96 1.93 2.16 2.11 1.55 1.44 1.39 1.34 1.41 1.51 1.68 1.98 2.30 2.14 1.96 1.88 1.72
2.13 1.91 1.74 1.74 1.67 1.57 1.54 1.70 1.82 1.83 1.90 2.05 2.18 2.12 2.21 2.34 2.39 2.47 2.68 2.58 2.66 2.77 3.05 2.69 2.83 2.68 2.48 2.36 2.34 2.21 1.87 1.84 1.84 1.84 2.02 1.82 1.76 2.10 2.52 2.46 2.26 2.06 1.88
2.67 2.64 2.37 2.10 1.95 1.91 2.04 2.04 1.95 2.03 2.13 2.22 2.39 2.32 2.29 2.52 2.65 2.71 2.71 2.77 2.54 2.63 2.99 3.09 2.87 3.07 3.12 2.91 2.67 2.42 2.34 2.15 2.04 2.07 2.16 2.09 2.06 2.18 2.50 2.71 2.58 2.44 2.19
2.87 2.95 2.73 2.55 2.40 2.37 2.53 2.61 2.51 2.33 2.51 2.58 2.55 2.40 2.45 2.67 2.97 3.09 2.96 3.01 2.79 2.67 2.86 3.00 3.00 3.59 3.46 3.31 2.83 2.54 2.49 2.42 2.24 2.27 2.34 2.42 2.18 2.05 2.24 2.70 2.88 2.79 2.62
3.23 3.13 3.08 3.04 2.94 2.98 2.97 2.93 2.73 2.68 2.58 2.67 2.75 2.75 2.73 2.74 3.06 3.19 3.25 3.19 3.00 2.85 3.01 3.04 3.25 3.49 3.26 3.12 2.83 2.63 2.53 2.47 2.27 2.27 2.50 2.72 2.44 2.26 2.23 2.43 2.76 2.95 3.02
3.59 3.57 3.55 3.39 3.42 3.45 3.43 3.33 3.14 3.02 2.88 2.72 2.68 2.80 2.84 2.92 3.13 3.32 3.17 3.05 3.15 3.16 3.30 3.50 3.56 3.56 3.45 3.31 3.08 2.72 2.53 2.56 2.10 2.05 2.17 2.34 2.51 2.28 2.42 2.65 2.86 2.91 3.17
4.10 4.27 4.29 4.21 3.99 3.78 3.71 3.70 3.73 3.70 3.46 3.15 3.00 2.99 3.01 2.88 3.01 3.26 3.20 3.24 3.27 3.32 3.37 3.10 3.56 3.55 3.59 3.42 2.83 2.63 2.35 2.33 2.20 1.94 1.98 1.95 2.10 2.14 2.19 2.34 2.59 2.67 3.13
4.40 4.91 4.88 4.70 4.58 4.50 4.39 4.16 4.16 3.92 3.64 3.53 3.43 3.52 3.34 3.18 3.13 3.35 3.30 3.36 3.38 3.47 3.48 3.45 3.69 3.62 3.44 3.35 2.64 2.46 2.24 1.91 1.92 1.90 1.75 1.76 1.85 1.77 1.91 2.18 2.48 2.19 2.57
4.69 5.15 5.38 5.39 5.21 4.91 4.51 4.13 3.97 3.89 3.85 3.71 3.57 3.39 3.27 3.20 3.28 3.60 3.45 3.70 3.61 3.39 3.33 3.41 3.64 3.50 3.23 3.26 3.23 2.70 2.11 1.76 1.79 1.65 1.73 1.91 1.81 1.82 2.04 2.36 2.49 2.35 2.12
4.28 4.71 4.87 4.64 4.53 4.36 4.11 4.01 4.00 4.20 3.92 3.70 3.59 3.42 3.15 3.10 3.21 3.24 3.52 3.42 3.41 3.49 3.38 3.38 3.59 3.40 2.97 3.09 3.33 3.25 2.53 2.28 1.81 1.37 1.64 1.80 1.87 2.09 2.17 2.17 2.50 2.68 2.45
3.24 3.50 3.66 3.83 3.78 3.67 3.65 3.63 3.66 3.90 3.72 3.56 3.46 3.38 3.01 2.84 2.81 2.93 3.03 3.11 3.43 3.35 3.38 3.43 3.37 3.27 2.97 2.89 3.00 3.26 2.82 2.41 1.95 1.44 1.39 1.67 2.02 2.19 2.16 2.26 2.34 2.56 2.66
2.86 3.04 3.10 3.14 3.27 3.32 3.39 3.30 3.14 3.07 3.04 3.01 3.10 3.05 2.98 2.83 2.72 2.74 2.79 2.85 2.94 2.86 2.99 2.74 2.87 3.10 3.20 2.92 2.96 2.88 2.77 2.62 2.46 1.99 1.65 1.66 1.92 2.07 2.23 2.20 2.28 2.41 2.70
2.27 2.50 2.64 2.76 2.87 2.99 3.05 2.99 2.97 2.78 2.78 2.84 2.90 2.93 2.89 2.84 2.81 2.77 2.76 2.75 2.65 2.51 2.61 2.62 2.81 2.82 2.83 2.81 2.87 2.92 2.94 2.85 2.63 2.51 2.25 2.14 2.05 1.82 1.87 2.00 2.17 2.29 2.51
2.02 2.20 2.32 2.47 2.52 2.64 2.69 2.75 2.75 2.71 2.70 2.71 2.72 2.73 2.73 2.73 2.64 2.59 2.54 2.56 2.48 2.45 2.50 2.57 2.67 2.60 2.62 2.76 2.79 2.80 2.90 2.87 2.87 2.90 2.48 2.30 2.13 1.71 1.67 1.66 1.84 2.02 2.36